Torna al catalogo

ARIANE 5 R/B

AttivoHEO
NORAD 44477·ROCKET BODY·🇫🇷 France

Lanciato Aug 6, 2019 da Guiana Space Centre

Loading…

Prossimi Passaggi (prossime 24 ore)

TLE

AggiornatoSource: Space-Track

Epoca: Sep 14, 2026, 03:31 UTC

1 44477U 19049C   26257.14664832  .00007180  00000-0  52090-3 0  9990
2 44477   4.1483 205.5369 6603571 263.4248  23.2722  3.21015369 68849

Traccia ARIANE 5 R/B in tempo reale con AllMySat

Download on the App Store